GEFSGL_prec_meanprecacc_300.txt.gz
Total_Precipitation_Accumulation
1.70 1.76 1.86 1.84 1.91 2.01 2.06 1.98 2.09 2.20 2.33 2.29 2.23 2.18 2.04 1.98 2.07 2.18 2.06 2.20 2.21 2.21 2.19 2.26 2.29 2.46 2.60 2.57 2.62 2.68 2.95 3.26 3.15 2.91 2.65 2.47 2.39 2.37 2.21 2.15 2.06 1.96 1.77
1.68 1.70 1.82 1.90 1.87 1.83 1.79 1.82 1.89 1.92 1.99 2.01 1.97 1.97 1.97 2.06 2.17 2.08 2.02 2.06 2.14 2.11 2.19 2.34 2.23 2.38 2.54 2.48 2.59 2.60 2.77 3.13 3.27 3.36 3.29 2.98 2.72 2.58 2.52 2.31 1.91 1.74 1.78
1.73 1.73 1.85 1.79 1.72 1.76 1.90 1.97 1.94 1.94 1.96 1.92 1.91 1.91 1.93 2.12 2.25 2.19 2.16 2.23 2.26 2.15 2.24 2.28 2.16 2.28 2.34 2.37 2.44 2.50 2.67 2.89 3.16 3.13 3.17 3.09 2.93 2.68 2.81 2.51 2.18 2.11 1.74
1.68 1.79 1.90 1.86 1.87 1.96 2.08 2.17 2.11 2.01 2.02 2.07 2.07 2.02 2.04 1.99 2.02 2.16 2.28 2.29 2.26 2.16 2.15 2.07 1.95 1.96 2.04 2.23 2.24 2.37 2.59 2.79 2.98 2.93 3.00 3.11 3.17 3.17 3.21 2.96 2.76 2.50 2.13
1.70 1.84 1.95 2.00 2.00 2.03 2.05 2.14 2.12 2.00 1.97 2.18 2.19 2.15 2.14 2.02 1.89 1.98 2.09 2.03 2.07 2.04 1.98 1.81 1.62 1.66 1.76 1.86 1.80 2.15 2.46 2.59 2.68 2.76 2.86 3.06 3.20 3.43 3.25 3.11 2.99 2.92 2.60
1.57 1.74 1.81 1.93 2.03 2.03 2.00 2.05 2.04 2.08 2.11 2.14 2.10 2.11 2.01 1.72 1.78 1.73 1.69 1.73 1.80 1.83 1.86 1.83 1.67 1.56 1.52 1.56 1.54 1.71 2.03 2.18 2.39 2.68 2.82 3.02 3.12 3.14 3.32 3.30 3.24 3.09 2.79
1.46 1.60 1.71 1.85 1.93 1.95 1.91 2.00 2.11 2.10 2.03 1.93 1.87 1.88 1.83 1.75 1.61 1.41 1.36 1.47 1.66 1.74 1.79 1.81 1.57 1.45 1.52 1.40 1.48 1.55 1.58 1.68 1.86 2.24 2.51 2.61 2.66 2.71 3.02 3.13 3.13 3.00 2.91
1.54 1.65 1.72 1.85 1.90 1.92 1.90 1.87 1.90 1.89 1.88 1.89 1.79 1.78 1.85 1.74 1.64 1.39 1.29 1.26 1.45 1.51 1.50 1.54 1.58 1.57 1.48 1.51 1.49 1.48 1.40 1.43 1.53 1.58 1.74 1.96 2.22 2.47 2.68 2.88 3.15 3.10 3.03
1.56 1.70 1.80 1.88 1.91 1.90 1.92 1.87 1.89 1.88 1.82 1.82 1.81 1.83 1.82 1.75 1.69 1.48 1.39 1.36 1.47 1.49 1.52 1.53 1.62 1.67 1.67 1.51 1.46 1.49 1.50 1.53 1.49 1.51 1.46 1.55 1.70 1.82 2.00 2.29 2.64 2.97 3.17
1.60 1.70 1.81 1.89 1.99 1.94 2.01 2.04 1.99 1.89 1.81 1.81 1.86 1.84 1.75 1.70 1.59 1.42 1.40 1.41 1.60 1.70 1.82 1.80 1.70 1.57 1.55 1.43 1.42 1.52 1.50 1.50 1.43 1.41 1.36 1.33 1.33 1.45 1.62 1.81 2.10 2.48 2.77
1.68 1.77 1.87 1.95 1.98 1.95 2.02 2.07 2.05 1.99 1.96 1.84 1.74 1.76 1.77 1.68 1.49 1.23 1.20 1.26 1.51 1.74 1.79 1.73 1.60 1.43 1.28 1.24 1.22 1.33 1.42 1.37 1.37 1.42 1.46 1.44 1.45 1.49 1.55 1.63 1.92 2.15 2.30
1.82 1.80 1.87 1.98 1.82 1.81 2.03 2.12 2.14 2.15 2.11 1.98 1.86 1.80 1.82 1.76 1.48 1.29 1.23 1.24 1.40 1.65 1.85 1.81 1.65 1.46 1.27 1.18 1.04 1.09 1.17 1.12 1.19 1.37 1.44 1.46 1.48 1.49 1.57 1.68 1.87 2.07 2.24
1.80 1.84 1.85 1.89 2.00 2.07 2.13 2.19 2.16 2.11 2.09 2.05 2.00 1.91 1.89 1.91 1.83 1.55 1.40 1.36 1.45 1.51 1.67 1.84 1.72 1.42 1.18 1.09 1.06 0.99 0.89 0.90 1.05 1.18 1.26 1.36 1.41 1.49 1.62 1.78 1.99 2.15 2.21
1.91 2.00 1.98 1.93 1.96 2.14 2.31 2.33 2.26 2.12 2.15 2.18 2.08 2.06 2.07 2.08 1.98 1.75 1.58 1.47 1.49 1.47 1.49 1.51 1.46 1.31 1.14 1.14 1.17 1.04 0.92 0.99 1.06 1.06 1.14 1.27 1.35 1.44 1.58 1.69 1.87 2.08 2.21
2.08 2.08 2.09 2.11 2.15 2.23 2.24 2.23 2.23 2.18 2.11 2.15 2.12 2.09 2.08 2.03 1.91 1.78 1.66 1.60 1.58 1.52 1.43 1.45 1.42 1.42 1.29 1.23 1.28 1.27 1.23 1.27 1.23 1.17 1.21 1.25 1.30 1.36 1.43 1.56 1.73 1.85 1.95
2.34 2.25 2.25 2.24 2.26 2.25 2.27 2.12 1.99 1.91 1.84 1.75 1.77 1.75 1.69 1.67 1.62 1.53 1.51 1.49 1.45 1.44 1.33 1.43 1.54 1.53 1.48 1.46 1.44 1.43 1.42 1.39 1.38 1.41 1.39 1.34 1.34 1.36 1.34 1.40 1.55 1.64 1.66
2.51 2.47 2.37 2.30 2.24 2.21 2.29 2.30 2.20 2.06 1.99 1.82 1.67 1.58 1.54 1.51 1.43 1.36 1.35 1.38 1.38 1.34 1.28 1.40 1.57 1.60 1.59 1.60 1.54 1.50 1.53 1.48 1.48 1.50 1.47 1.45 1.47 1.49 1.46 1.47 1.57 1.68 1.67
2.45 2.42 2.35 2.30 2.23 2.20 2.28 2.34 2.27 2.20 2.17 2.02 1.83 1.71 1.55 1.38 1.29 1.27 1.34 1.33 1.30 1.28 1.36 1.54 1.71 1.71 1.72 1.69 1.61 1.54 1.54 1.52 1.50 1.50 1.50 1.47 1.49 1.55 1.57 1.55 1.56 1.62 1.63
2.43 2.36 2.31 2.27 2.31 2.37 2.39 2.44 2.39 2.33 2.29 2.18 1.93 1.76 1.65 1.41 1.29 1.28 1.29 1.26 1.37 1.46 1.53 1.64 1.68 1.69 1.71 1.66 1.57 1.52 1.55 1.53 1.50 1.53 1.54 1.53 1.52 1.60 1.60 1.58 1.56 1.59 1.52
2.52 2.50 2.40 2.26 2.23 2.34 2.44 2.38 2.35 2.35 2.30 2.21 2.08 1.85 1.61 1.45 1.36 1.36 1.30 1.31 1.41 1.48 1.51 1.51 1.51 1.50 1.54 1.56 1.56 1.57 1.63 1.60 1.59 1.58 1.52 1.50 1.49 1.53 1.55 1.55 1.52 1.50 1.46
2.24 2.19 2.15 2.00 1.96 2.01 2.17 2.24 2.24 2.31 2.24 2.11 2.01 1.93 1.71 1.43 1.42 1.42 1.41 1.39 1.41 1.45 1.45 1.45 1.44 1.40 1.38 1.45 1.50 1.51 1.54 1.56 1.52 1.48 1.46 1.46 1.42 1.46 1.45 1.43 1.42 1.37 1.36
2.08 2.04 1.93 1.83 1.85 1.93 2.03 2.08 2.15 2.23 2.21 2.11 1.96 1.86 1.77 1.50 1.44 1.40 1.36 1.32 1.32 1.33 1.34 1.42 1.44 1.39 1.36 1.42 1.45 1.46 1.45 1.42 1.39 1.36 1.33 1.30 1.31 1.35 1.35 1.37 1.41 1.40 1.38
2.22 2.14 2.09 2.05 1.95 2.02 2.00 2.03 2.14 2.10 2.03 2.01 1.92 1.78 1.68 1.65 1.56 1.46 1.37 1.30 1.27 1.27 1.26 1.29 1.33 1.31 1.29 1.29 1.31 1.29 1.24 1.20 1.17 1.12 1.15 1.19 1.24 1.30 1.32 1.34 1.40 1.46 1.45
2.22 2.23 2.13 2.01 1.92 1.87 1.88 1.97 2.00 1.90 1.78 1.76 1.72 1.61 1.59 1.59 1.53 1.44 1.30 1.23 1.23 1.22 1.17 1.13 1.08 1.03 1.03 1.05 1.08 1.09 1.04 1.01 1.01 1.02 1.05 1.14 1.19 1.24 1.28 1.33 1.41 1.46 1.45
2.02 2.10 2.12 2.02 1.87 1.73 1.67 1.69 1.67 1.62 1.57 1.54 1.53 1.52 1.50 1.44 1.37 1.28 1.21 1.19 1.16 1.10 1.01 0.96 0.95 0.94 0.92 0.92 0.92 0.94 1.01 1.02 1.03 1.00 1.00 1.08 1.14 1.21 1.21 1.26 1.33 1.39 1.37
1.87 1.89 1.85 1.76 1.62 1.50 1.47 1.48 1.46 1.40 1.36 1.31 1.28 1.26 1.20 1.17 1.13 1.07 1.01 1.00 1.01 1.02 0.98 0.94 0.95 0.95 0.95 0.92 0.89 0.90 0.89 0.84 0.87 0.89 0.85 0.87 0.99 1.08 1.07 1.03 1.03 1.13 1.16

GEFSGL_prec_meanprecacc_306.txt.gz
Total_Precipitation_Accumulation
1.71 1.77 1.87 1.85 1.93 2.03 2.08 2.00 2.10 2.21 2.34 2.31 2.24 2.19 2.06 2.00 2.09 2.20 2.07 2.22 2.22 2.24 2.22 2.30 2.35 2.52 2.66 2.61 2.67 2.73 3.00 3.32 3.23 2.97 2.69 2.51 2.43 2.41 2.25 2.17 2.08 1.98 1.80
1.69 1.72 1.84 1.91 1.88 1.84 1.81 1.83 1.90 1.93 2.00 2.02 1.98 1.98 1.98 2.07 2.18 2.10 2.04 2.08 2.16 2.14 2.22 2.38 2.27 2.45 2.59 2.51 2.62 2.64 2.82 3.18 3.33 3.41 3.33 3.03 2.77 2.63 2.56 2.35 1.93 1.77 1.81
1.75 1.74 1.87 1.81 1.74 1.78 1.91 1.98 1.95 1.95 1.97 1.93 1.92 1.92 1.95 2.14 2.26 2.21 2.19 2.25 2.29 2.17 2.28 2.32 2.20 2.32 2.38 2.40 2.46 2.53 2.71 2.92 3.20 3.17 3.20 3.13 2.98 2.74 2.84 2.54 2.21 2.14 1.76
1.71 1.80 1.92 1.88 1.88 1.98 2.09 2.18 2.12 2.02 2.03 2.09 2.08 2.03 2.05 2.00 2.03 2.17 2.30 2.31 2.28 2.19 2.17 2.09 1.98 1.99 2.07 2.25 2.26 2.40 2.61 2.81 3.01 2.96 3.02 3.12 3.20 3.21 3.24 2.99 2.78 2.54 2.16
1.71 1.86 1.97 2.03 2.03 2.05 2.07 2.16 2.14 2.01 1.98 2.19 2.20 2.16 2.15 2.02 1.90 1.99 2.10 2.05 2.09 2.05 1.99 1.82 1.64 1.69 1.79 1.88 1.81 2.17 2.49 2.61 2.70 2.78 2.87 3.07 3.23 3.47 3.27 3.13 3.01 2.95 2.64
1.59 1.76 1.83 1.95 2.05 2.05 2.03 2.08 2.08 2.11 2.14 2.17 2.12 2.12 2.03 1.73 1.79 1.74 1.70 1.74 1.81 1.84 1.87 1.84 1.68 1.58 1.54 1.58 1.56 1.72 2.04 2.20 2.40 2.69 2.82 3.03 3.13 3.16 3.33 3.31 3.26 3.11 2.82
1.48 1.62 1.75 1.88 1.96 1.99 1.95 2.04 2.16 2.14 2.06 1.96 1.90 1.90 1.85 1.77 1.62 1.41 1.37 1.49 1.67 1.75 1.80 1.82 1.58 1.47 1.53 1.41 1.50 1.56 1.60 1.70 1.87 2.25 2.52 2.62 2.68 2.73 3.04 3.15 3.16 3.03 2.93
1.56 1.68 1.75 1.89 1.94 1.96 1.94 1.91 1.93 1.92 1.90 1.92 1.82 1.80 1.87 1.77 1.67 1.42 1.32 1.28 1.46 1.52 1.51 1.55 1.59 1.57 1.49 1.53 1.51 1.50 1.42 1.45 1.55 1.59 1.76 1.98 2.26 2.50 2.71 2.91 3.19 3.15 3.08
1.58 1.73 1.84 1.94 1.96 1.94 1.95 1.90 1.93 1.92 1.86 1.87 1.85 1.87 1.85 1.79 1.72 1.50 1.41 1.37 1.48 1.50 1.53 1.54 1.63 1.69 1.71 1.56 1.50 1.53 1.53 1.55 1.51 1.52 1.47 1.57 1.74 1.88 2.06 2.34 2.70 3.04 3.25
1.63 1.73 1.84 1.93 2.05 2.00 2.08 2.11 2.07 1.97 1.89 1.88 1.92 1.88 1.78 1.73 1.62 1.43 1.41 1.42 1.61 1.71 1.82 1.81 1.72 1.60 1.61 1.50 1.47 1.55 1.53 1.53 1.45 1.42 1.37 1.35 1.35 1.49 1.68 1.88 2.18 2.56 2.85
1.70 1.80 1.90 1.99 2.05 2.04 2.10 2.13 2.11 2.05 2.03 1.91 1.80 1.81 1.81 1.71 1.52 1.25 1.22 1.26 1.51 1.75 1.80 1.75 1.63 1.47 1.33 1.29 1.27 1.37 1.46 1.39 1.39 1.43 1.47 1.46 1.46 1.51 1.58 1.68 1.97 2.23 2.38
1.83 1.82 1.89 2.01 1.86 1.85 2.08 2.15 2.18 2.20 2.16 2.04 1.91 1.83 1.85 1.79 1.51 1.31 1.25 1.25 1.40 1.66 1.86 1.82 1.67 1.48 1.30 1.22 1.08 1.13 1.19 1.13 1.20 1.38 1.45 1.47 1.48 1.50 1.59 1.71 1.92 2.13 2.30
1.82 1.86 1.87 1.91 2.02 2.09 2.16 2.22 2.19 2.14 2.13 2.09 2.04 1.93 1.91 1.93 1.86 1.58 1.42 1.37 1.45 1.52 1.68 1.85 1.73 1.43 1.20 1.10 1.08 1.00 0.90 0.90 1.05 1.18 1.26 1.36 1.41 1.50 1.63 1.80 2.02 2.19 2.25
1.92 2.01 1.98 1.95 1.98 2.15 2.33 2.34 2.27 2.13 2.17 2.21 2.11 2.09 2.10 2.12 2.01 1.77 1.60 1.49 1.51 1.48 1.49 1.51 1.46 1.32 1.14 1.15 1.17 1.04 0.92 0.99 1.06 1.07 1.15 1.28 1.36 1.45 1.60 1.71 1.89 2.11 2.24
2.09 2.08 2.10 2.11 2.16 2.24 2.24 2.24 2.24 2.20 2.15 2.20 2.17 2.14 2.12 2.06 1.94 1.81 1.68 1.62 1.60 1.54 1.45 1.46 1.42 1.42 1.29 1.23 1.28 1.27 1.24 1.27 1.23 1.18 1.22 1.26 1.31 1.37 1.45 1.58 1.75 1.87 1.97
2.36 2.27 2.27 2.26 2.28 2.26 2.29 2.13 2.01 1.93 1.88 1.79 1.82 1.80 1.74 1.70 1.64 1.55 1.53 1.51 1.48 1.47 1.36 1.44 1.55 1.53 1.48 1.46 1.45 1.43 1.43 1.40 1.39 1.42 1.40 1.36 1.36 1.38 1.36 1.42 1.57 1.66 1.69
2.53 2.50 2.39 2.32 2.25 2.22 2.30 2.31 2.22 2.09 2.05 1.90 1.74 1.64 1.59 1.55 1.47 1.39 1.39 1.43 1.43 1.40 1.32 1.43 1.59 1.61 1.61 1.61 1.55 1.51 1.54 1.49 1.49 1.51 1.48 1.47 1.50 1.51 1.48 1.49 1.59 1.70 1.71
2.46 2.43 2.36 2.31 2.24 2.21 2.29 2.36 2.30 2.25 2.24 2.11 1.89 1.75 1.57 1.41 1.32 1.31 1.38 1.38 1.35 1.34 1.40 1.57 1.74 1.74 1.74 1.72 1.64 1.56 1.57 1.54 1.52 1.52 1.52 1.49 1.52 1.58 1.60 1.57 1.58 1.66 1.67
2.43 2.37 2.33 2.28 2.32 2.38 2.40 2.45 2.42 2.38 2.33 2.23 1.98 1.80 1.68 1.45 1.33 1.31 1.32 1.28 1.40 1.51 1.58 1.67 1.71 1.72 1.73 1.68 1.59 1.54 1.58 1.55 1.52 1.55 1.56 1.56 1.55 1.63 1.62 1.59 1.58 1.65 1.58
2.52 2.51 2.41 2.27 2.24 2.34 2.44 2.39 2.36 2.39 2.34 2.24 2.12 1.90 1.66 1.49 1.41 1.41 1.34 1.35 1.45 1.52 1.54 1.55 1.54 1.53 1.56 1.58 1.59 1.60 1.66 1.63 1.61 1.60 1.55 1.53 1.52 1.56 1.58 1.59 1.57 1.56 1.52
2.25 2.20 2.16 2.01 1.97 2.01 2.17 2.24 2.24 2.32 2.25 2.12 2.03 1.97 1.75 1.47 1.47 1.47 1.46 1.43 1.45 1.48 1.48 1.47 1.46 1.43 1.40 1.47 1.52 1.54 1.58 1.60 1.56 1.52 1.50 1.51 1.47 1.51 1.51 1.49 1.46 1.41 1.41
2.09 2.05 1.94 1.84 1.86 1.94 2.04 2.09 2.16 2.24 2.22 2.13 1.98 1.89 1.81 1.54 1.48 1.45 1.40 1.37 1.36 1.36 1.36 1.45 1.47 1.42 1.38 1.44 1.48 1.49 1.49 1.46 1.42 1.41 1.39 1.37 1.38 1.43 1.43 1.44 1.46 1.45 1.43
2.23 2.15 2.11 2.06 1.97 2.03 2.01 2.04 2.15 2.11 2.04 2.02 1.95 1.82 1.72 1.70 1.60 1.51 1.41 1.34 1.31 1.30 1.29 1.32 1.36 1.34 1.32 1.32 1.34 1.33 1.28 1.25 1.23 1.20 1.24 1.28 1.32 1.39 1.40 1.42 1.47 1.52 1.51
2.25 2.26 2.16 2.03 1.94 1.89 1.89 1.98 2.02 1.92 1.80 1.78 1.75 1.64 1.62 1.64 1.58 1.50 1.35 1.28 1.28 1.26 1.21 1.17 1.11 1.06 1.06 1.07 1.11 1.12 1.08 1.06 1.07 1.09 1.13 1.22 1.27 1.30 1.34 1.40 1.48 1.53 1.52
2.05 2.13 2.15 2.06 1.91 1.78 1.71 1.73 1.70 1.64 1.59 1.56 1.56 1.55 1.54 1.48 1.41 1.33 1.25 1.22 1.19 1.13 1.03 0.98 0.97 0.96 0.93 0.93 0.93 0.96 1.02 1.04 1.06 1.04 1.05 1.13 1.19 1.25 1.26 1.30 1.37 1.43 1.42
1.89 1.92 1.88 1.79 1.66 1.54 1.51 1.52 1.50 1.44 1.39 1.34 1.30 1.29 1.24 1.20 1.16 1.11 1.04 1.03 1.04 1.03 1.00 0.96 0.96 0.96 0.96 0.93 0.91 0.92 0.91 0.86 0.89 0.92 0.87 0.89 1.02 1.11 1.10 1.05 1.05 1.15 1.18

GEFSGL_prec_meanprecacc_312.txt.gz
Total_Precipitation_Accumulation
1.72 1.78 1.88 1.86 1.95 2.05 2.10 2.01 2.12 2.24 2.39 2.37 2.34 2.30 2.15 2.08 2.17 2.27 2.14 2.29 2.28 2.30 2.29 2.37 2.41 2.59 2.72 2.67 2.72 2.79 3.07 3.39 3.31 3.03 2.73 2.55 2.49 2.46 2.30 2.23 2.14 2.03 1.85
1.70 1.72 1.85 1.93 1.89 1.86 1.83 1.85 1.92 1.96 2.04 2.07 2.04 2.04 2.03 2.13 2.24 2.16 2.10 2.13 2.21 2.18 2.26 2.41 2.31 2.48 2.63 2.55 2.67 2.69 2.87 3.25 3.40 3.47 3.37 3.06 2.81 2.66 2.61 2.39 1.96 1.80 1.86
1.76 1.75 1.88 1.82 1.75 1.80 1.94 2.00 1.97 1.97 2.00 1.97 1.97 1.96 2.00 2.18 2.30 2.25 2.24 2.29 2.31 2.20 2.30 2.34 2.22 2.36 2.42 2.44 2.50 2.57 2.76 2.97 3.27 3.22 3.24 3.17 3.00 2.76 2.87 2.56 2.23 2.17 1.77
1.75 1.83 1.93 1.90 1.90 1.99 2.11 2.20 2.16 2.06 2.06 2.12 2.11 2.06 2.09 2.02 2.05 2.19 2.33 2.34 2.31 2.21 2.20 2.12 2.01 2.01 2.10 2.29 2.30 2.43 2.65 2.84 3.04 2.99 3.05 3.15 3.23 3.24 3.26 3.01 2.81 2.57 2.18
1.76 1.89 1.99 2.05 2.04 2.07 2.09 2.19 2.18 2.06 2.02 2.23 2.24 2.20 2.18 2.04 1.91 2.02 2.14 2.08 2.12 2.07 2.02 1.85 1.66 1.72 1.83 1.91 1.84 2.19 2.52 2.64 2.73 2.81 2.90 3.09 3.24 3.49 3.29 3.15 3.03 2.97 2.66
1.62 1.79 1.86 1.97 2.09 2.08 2.06 2.12 2.13 2.16 2.20 2.22 2.16 2.16 2.05 1.75 1.81 1.75 1.72 1.77 1.85 1.86 1.89 1.86 1.71 1.61 1.56 1.60 1.57 1.74 2.06 2.22 2.42 2.72 2.85 3.05 3.15 3.17 3.33 3.32 3.27 3.12 2.83
1.51 1.66 1.79 1.91 2.00 2.04 1.99 2.09 2.20 2.18 2.11 2.00 1.94 1.94 1.89 1.80 1.65 1.43 1.38 1.51 1.70 1.78 1.82 1.85 1.60 1.48 1.55 1.43 1.51 1.57 1.61 1.71 1.89 2.27 2.54 2.63 2.69 2.74 3.05 3.16 3.16 3.04 2.95
1.59 1.71 1.79 1.92 1.97 1.99 1.97 1.95 1.97 1.96 1.94 1.95 1.85 1.83 1.91 1.80 1.69 1.44 1.33 1.30 1.49 1.55 1.54 1.58 1.62 1.60 1.51 1.55 1.53 1.52 1.43 1.46 1.57 1.60 1.78 2.00 2.27 2.52 2.73 2.93 3.21 3.16 3.09
1.60 1.75 1.87 1.97 1.99 1.97 1.99 1.94 1.96 1.96 1.90 1.90 1.88 1.90 1.89 1.82 1.75 1.53 1.43 1.40 1.51 1.53 1.56 1.58 1.66 1.71 1.72 1.58 1.53 1.56 1.56 1.57 1.52 1.53 1.48 1.58 1.75 1.89 2.07 2.36 2.72 3.06 3.26
1.64 1.74 1.86 1.96 2.08 2.04 2.12 2.16 2.11 2.01 1.92 1.91 1.94 1.90 1.80 1.76 1.65 1.47 1.44 1.44 1.63 1.74 1.85 1.84 1.75 1.62 1.62 1.51 1.48 1.57 1.55 1.55 1.47 1.43 1.38 1.36 1.36 1.50 1.69 1.91 2.22 2.59 2.88
1.71 1.81 1.92 2.01 2.07 2.06 2.12 2.16 2.15 2.08 2.05 1.94 1.82 1.84 1.83 1.73 1.54 1.28 1.24 1.28 1.53 1.77 1.82 1.77 1.65 1.49 1.35 1.31 1.28 1.38 1.47 1.41 1.41 1.45 1.49 1.48 1.50 1.54 1.61 1.72 2.02 2.29 2.43
1.86 1.84 1.92 2.04 1.88 1.87 2.09 2.17 2.20 2.22 2.18 2.05 1.93 1.85 1.87 1.80 1.52 1.33 1.27 1.27 1.43 1.68 1.88 1.85 1.70 1.51 1.32 1.23 1.09 1.14 1.20 1.14 1.21 1.39 1.47 1.49 1.52 1.54 1.63 1.75 1.95 2.16 2.35
1.85 1.90 1.91 1.95 2.05 2.11 2.17 2.23 2.21 2.17 2.14 2.11 2.06 1.95 1.92 1.95 1.87 1.60 1.45 1.40 1.48 1.56 1.71 1.88 1.76 1.46 1.23 1.13 1.09 1.01 0.91 0.91 1.06 1.19 1.27 1.37 1.43 1.52 1.65 1.84 2.07 2.23 2.30
1.98 2.07 2.04 2.00 2.03 2.19 2.36 2.36 2.29 2.15 2.19 2.23 2.12 2.10 2.11 2.14 2.03 1.80 1.63 1.52 1.54 1.53 1.53 1.55 1.50 1.35 1.17 1.18 1.20 1.06 0.94 1.01 1.07 1.08 1.16 1.29 1.37 1.47 1.62 1.74 1.93 2.15 2.29
2.17 2.15 2.16 2.18 2.21 2.29 2.29 2.28 2.28 2.22 2.17 2.21 2.19 2.16 2.15 2.09 1.97 1.85 1.73 1.66 1.64 1.58 1.49 1.50 1.46 1.45 1.32 1.27 1.32 1.31 1.27 1.31 1.27 1.21 1.24 1.28 1.34 1.39 1.47 1.61 1.78 1.90 2.01
2.43 2.32 2.32 2.31 2.33 2.31 2.34 2.19 2.04 1.95 1.90 1.81 1.83 1.82 1.75 1.73 1.68 1.59 1.57 1.55 1.51 1.50 1.39 1.47 1.57 1.56 1.52 1.51 1.50 1.48 1.47 1.44 1.43 1.46 1.44 1.39 1.39 1.41 1.39 1.45 1.59 1.68 1.72
2.58 2.54 2.43 2.36 2.30 2.27 2.35 2.36 2.25 2.12 2.07 1.91 1.76 1.67 1.64 1.61 1.52 1.44 1.44 1.48 1.48 1.44 1.36 1.47 1.63 1.66 1.66 1.66 1.60 1.55 1.59 1.54 1.55 1.56 1.53 1.51 1.54 1.55 1.52 1.52 1.62 1.73 1.73
2.50 2.48 2.42 2.38 2.30 2.27 2.34 2.40 2.33 2.28 2.26 2.12 1.91 1.79 1.61 1.45 1.36 1.34 1.42 1.41 1.38 1.36 1.43 1.62 1.79 1.79 1.79 1.76 1.67 1.60 1.61 1.59 1.58 1.57 1.57 1.54 1.57 1.64 1.65 1.62 1.62 1.69 1.69
2.47 2.40 2.36 2.33 2.37 2.43 2.46 2.50 2.46 2.42 2.36 2.25 2.00 1.83 1.70 1.47 1.35 1.33 1.34 1.30 1.42 1.53 1.61 1.71 1.76 1.78 1.78 1.72 1.63 1.58 1.61 1.59 1.56 1.59 1.59 1.59 1.59 1.68 1.67 1.63 1.61 1.68 1.60
2.54 2.53 2.43 2.29 2.27 2.38 2.49 2.43 2.40 2.42 2.37 2.26 2.13 1.91 1.67 1.50 1.42 1.42 1.36 1.36 1.47 1.54 1.57 1.58 1.57 1.57 1.60 1.63 1.63 1.65 1.70 1.66 1.64 1.63 1.57 1.56 1.56 1.60 1.63 1.63 1.61 1.59 1.55
2.27 2.21 2.17 2.01 1.98 2.03 2.21 2.27 2.26 2.34 2.27 2.14 2.04 1.98 1.76 1.47 1.48 1.49 1.48 1.45 1.47 1.50 1.50 1.50 1.49 1.46 1.44 1.51 1.57 1.58 1.61 1.63 1.59 1.55 1.54 1.56 1.53 1.57 1.57 1.54 1.51 1.45 1.45
2.11 2.06 1.95 1.85 1.87 1.95 2.05 2.10 2.17 2.25 2.23 2.14 1.99 1.91 1.82 1.55 1.49 1.46 1.42 1.39 1.38 1.39 1.40 1.48 1.50 1.46 1.43 1.49 1.52 1.54 1.53 1.50 1.46 1.45 1.43 1.41 1.43 1.47 1.47 1.48 1.50 1.49 1.47
2.26 2.16 2.12 2.07 1.98 2.03 2.01 2.05 2.16 2.13 2.05 2.04 1.96 1.83 1.73 1.71 1.62 1.53 1.44 1.37 1.34 1.34 1.33 1.36 1.40 1.38 1.36 1.37 1.39 1.39 1.34 1.31 1.28 1.25 1.29 1.33 1.36 1.41 1.42 1.45 1.50 1.56 1.55
2.27 2.27 2.17 2.04 1.95 1.90 1.91 2.00 2.04 1.94 1.81 1.80 1.76 1.66 1.64 1.66 1.61 1.52 1.38 1.32 1.32 1.30 1.25 1.21 1.15 1.11 1.11 1.13 1.16 1.17 1.13 1.12 1.12 1.15 1.19 1.27 1.30 1.33 1.36 1.42 1.50 1.56 1.55
2.06 2.14 2.16 2.07 1.92 1.78 1.73 1.75 1.73 1.67 1.61 1.57 1.57 1.56 1.55 1.51 1.45 1.36 1.28 1.25 1.22 1.17 1.07 1.02 1.00 0.99 0.97 0.96 0.96 0.99 1.06 1.09 1.09 1.08 1.10 1.18 1.22 1.28 1.28 1.33 1.40 1.46 1.44
1.91 1.94 1.89 1.80 1.67 1.55 1.52 1.54 1.53 1.46 1.41 1.36 1.32 1.31 1.25 1.22 1.20 1.14 1.07 1.07 1.07 1.07 1.03 1.00 0.99 0.99 0.99 0.96 0.94 0.95 0.94 0.89 0.92 0.95 0.91 0.91 1.04 1.13 1.12 1.08 1.08 1.18 1.21

GEFSGL_prec_meanprecacc_318.txt.gz
Total_Precipitation_Accumulation
1.79 1.83 1.91 1.89 1.98 2.08 2.13 2.04 2.15 2.27 2.43 2.41 2.41 2.41 2.29 2.20 2.28 2.41 2.27 2.42 2.44 2.47 2.42 2.45 2.48 2.67 2.79 2.72 2.77 2.83 3.11 3.42 3.34 3.06 2.75 2.57 2.51 2.49 2.35 2.29 2.21 2.10 1.90
1.73 1.76 1.91 1.96 1.92 1.88 1.84 1.87 1.94 1.99 2.07 2.10 2.07 2.09 2.13 2.27 2.37 2.29 2.24 2.26 2.31 2.28 2.36 2.49 2.37 2.53 2.66 2.58 2.70 2.72 2.90 3.27 3.42 3.50 3.39 3.07 2.82 2.67 2.62 2.41 1.99 1.83 1.90
1.81 1.83 1.95 1.88 1.78 1.82 1.96 2.02 1.99 2.00 2.03 2.00 2.00 2.00 2.03 2.23 2.37 2.31 2.31 2.36 2.37 2.25 2.35 2.39 2.25 2.38 2.43 2.46 2.52 2.59 2.78 2.99 3.29 3.24 3.25 3.18 3.02 2.77 2.88 2.57 2.25 2.19 1.80
1.81 1.92 2.05 1.96 1.94 2.02 2.13 2.22 2.17 2.07 2.09 2.16 2.16 2.10 2.12 2.06 2.08 2.23 2.38 2.38 2.35 2.24 2.24 2.16 2.04 2.04 2.13 2.31 2.31 2.44 2.66 2.85 3.05 3.00 3.06 3.16 3.24 3.25 3.27 3.01 2.82 2.58 2.19
1.81 1.94 2.04 2.10 2.09 2.10 2.11 2.22 2.21 2.10 2.08 2.30 2.30 2.26 2.23 2.07 1.94 2.07 2.19 2.12 2.15 2.10 2.06 1.89 1.70 1.76 1.87 1.94 1.86 2.22 2.53 2.65 2.74 2.82 2.91 3.10 3.25 3.49 3.29 3.15 3.03 2.97 2.66
1.66 1.83 1.90 2.02 2.14 2.13 2.09 2.16 2.17 2.22 2.26 2.29 2.23 2.22 2.11 1.79 1.85 1.81 1.77 1.81 1.88 1.89 1.92 1.90 1.75 1.65 1.60 1.64 1.60 1.77 2.09 2.24 2.43 2.73 2.86 3.05 3.15 3.17 3.34 3.32 3.27 3.12 2.83
1.54 1.69 1.82 1.95 2.04 2.08 2.03 2.13 2.26 2.25 2.17 2.07 2.01 2.01 1.95 1.87 1.72 1.48 1.42 1.55 1.73 1.81 1.85 1.88 1.63 1.50 1.58 1.46 1.54 1.60 1.64 1.74 1.90 2.28 2.55 2.64 2.70 2.75 3.06 3.16 3.17 3.05 2.95
1.61 1.73 1.81 1.96 2.01 2.04 2.02 2.00 2.03 2.03 2.01 2.00 1.89 1.88 1.96 1.85 1.74 1.48 1.38 1.34 1.54 1.58 1.58 1.61 1.65 1.61 1.53 1.59 1.57 1.55 1.46 1.49 1.59 1.62 1.78 2.01 2.28 2.53 2.74 2.93 3.21 3.17 3.10
1.63 1.77 1.89 1.99 2.02 2.01 2.02 1.98 2.01 2.00 1.94 1.94 1.92 1.94 1.93 1.86 1.80 1.57 1.48 1.44 1.55 1.56 1.59 1.60 1.68 1.72 1.75 1.62 1.57 1.58 1.57 1.58 1.55 1.55 1.48 1.58 1.75 1.89 2.08 2.37 2.73 3.07 3.27
1.67 1.76 1.88 1.98 2.10 2.06 2.15 2.20 2.16 2.06 1.96 1.94 1.98 1.94 1.84 1.79 1.69 1.50 1.48 1.47 1.65 1.76 1.87 1.86 1.76 1.64 1.65 1.55 1.51 1.59 1.56 1.57 1.49 1.45 1.39 1.36 1.36 1.50 1.70 1.93 2.25 2.63 2.91
1.74 1.84 1.94 2.03 2.10 2.09 2.15 2.20 2.20 2.13 2.09 1.98 1.86 1.87 1.86 1.75 1.56 1.30 1.26 1.30 1.55 1.78 1.83 1.78 1.66 1.52 1.38 1.34 1.31 1.40 1.49 1.44 1.43 1.47 1.50 1.49 1.51 1.55 1.62 1.73 2.05 2.32 2.46
1.88 1.87 1.95 2.08 1.93 1.92 2.14 2.21 2.23 2.25 2.21 2.08 1.96 1.89 1.90 1.82 1.53 1.35 1.30 1.30 1.45 1.71 1.91 1.87 1.72 1.54 1.35 1.26 1.11 1.17 1.24 1.18 1.24 1.42 1.49 1.51 1.53 1.56 1.64 1.76 1.97 2.18 2.37
1.89 1.93 1.95 1.99 2.10 2.16 2.21 2.27 2.24 2.19 2.16 2.13 2.08 1.97 1.94 1.97 1.89 1.62 1.48 1.44 1.52 1.59 1.75 1.92 1.79 1.49 1.25 1.15 1.12 1.04 0.94 0.95 1.11 1.23 1.30 1.39 1.45 1.54 1.67 1.85 2.08 2.25 2.32
2.02 2.11 2.10 2.06 2.09 2.25 2.41 2.41 2.32 2.18 2.21 2.25 2.14 2.11 2.13 2.15 2.04 1.82 1.65 1.55 1.57 1.56 1.58 1.59 1.55 1.40 1.20 1.21 1.22 1.08 0.96 1.04 1.11 1.12 1.19 1.31 1.39 1.49 1.64 1.76 1.95 2.17 2.31
2.21 2.21 2.23 2.24 2.28 2.36 2.35 2.33 2.32 2.27 2.21 2.25 2.22 2.19 2.17 2.11 1.99 1.87 1.74 1.68 1.66 1.61 1.53 1.53 1.49 1.48 1.34 1.29 1.34 1.33 1.29 1.33 1.29 1.23 1.26 1.30 1.36 1.42 1.50 1.63 1.80 1.92 2.04
2.48 2.38 2.38 2.38 2.38 2.37 2.40 2.24 2.10 2.01 1.96 1.87 1.90 1.89 1.80 1.77 1.71 1.61 1.59 1.57 1.54 1.54 1.44 1.51 1.62 1.60 1.54 1.53 1.52 1.50 1.49 1.46 1.45 1.48 1.46 1.42 1.42 1.45 1.43 1.50 1.63 1.72 1.75
2.62 2.58 2.47 2.41 2.34 2.32 2.40 2.42 2.34 2.19 2.12 1.96 1.81 1.72 1.68 1.64 1.55 1.46 1.46 1.52 1.53 1.51 1.44 1.55 1.70 1.72 1.70 1.70 1.62 1.57 1.61 1.56 1.57 1.59 1.57 1.56 1.58 1.59 1.56 1.57 1.66 1.77 1.77
2.53 2.51 2.46 2.42 2.34 2.33 2.41 2.47 2.41 2.37 2.33 2.18 1.96 1.84 1.65 1.49 1.39 1.37 1.45 1.45 1.42 1.40 1.48 1.69 1.85 1.85 1.85 1.81 1.72 1.64 1.64 1.62 1.60 1.60 1.60 1.58 1.60 1.67 1.68 1.65 1.66 1.73 1.73
2.49 2.43 2.38 2.35 2.41 2.47 2.51 2.57 2.53 2.48 2.43 2.33 2.08 1.90 1.78 1.53 1.40 1.38 1.39 1.33 1.44 1.55 1.63 1.75 1.81 1.83 1.83 1.76 1.66 1.61 1.64 1.60 1.57 1.61 1.61 1.61 1.61 1.70 1.69 1.66 1.64 1.71 1.64
2.56 2.55 2.45 2.31 2.29 2.41 2.52 2.50 2.50 2.50 2.42 2.33 2.20 1.98 1.75 1.58 1.49 1.49 1.41 1.41 1.50 1.56 1.59 1.60 1.59 1.59 1.62 1.65 1.66 1.68 1.72 1.69 1.66 1.64 1.59 1.58 1.59 1.63 1.65 1.66 1.64 1.62 1.57
2.28 2.23 2.19 2.03 1.99 2.05 2.24 2.33 2.38 2.46 2.34 2.19 2.11 2.04 1.81 1.52 1.52 1.53 1.52 1.48 1.50 1.53 1.52 1.53 1.52 1.49 1.46 1.53 1.59 1.60 1.64 1.65 1.61 1.57 1.57 1.60 1.57 1.61 1.60 1.58 1.54 1.48 1.47
2.12 2.07 1.96 1.86 1.88 1.96 2.07 2.14 2.24 2.33 2.29 2.20 2.07 1.97 1.87 1.60 1.52 1.49 1.44 1.42 1.41 1.42 1.42 1.50 1.52 1.47 1.45 1.53 1.57 1.58 1.57 1.53 1.50 1.48 1.47 1.46 1.48 1.52 1.51 1.52 1.53 1.51 1.49
2.27 2.18 2.13 2.08 1.99 2.05 2.03 2.07 2.19 2.17 2.09 2.06 1.98 1.86 1.76 1.73 1.64 1.54 1.45 1.38 1.35 1.35 1.35 1.38 1.42 1.40 1.38 1.39 1.43 1.42 1.38 1.35 1.32 1.30 1.35 1.38 1.41 1.46 1.48 1.50 1.55 1.60 1.58
2.28 2.29 2.19 2.06 1.97 1.92 1.92 2.02 2.05 1.96 1.83 1.81 1.77 1.67 1.65 1.66 1.62 1.54 1.40 1.34 1.34 1.31 1.26 1.23 1.18 1.14 1.13 1.16 1.20 1.21 1.18 1.17 1.16 1.20 1.24 1.31 1.33 1.36 1.40 1.47 1.55 1.61 1.59
2.08 2.16 2.18 2.08 1.93 1.80 1.74 1.76 1.74 1.68 1.63 1.59 1.58 1.57 1.56 1.51 1.46 1.37 1.30 1.27 1.24 1.19 1.09 1.05 1.03 1.02 0.99 0.99 0.99 1.02 1.10 1.13 1.14 1.13 1.14 1.21 1.25 1.30 1.31 1.36 1.43 1.49 1.48
1.91 1.95 1.91 1.81 1.68 1.56 1.53 1.55 1.54 1.47 1.42 1.37 1.33 1.32 1.27 1.24 1.21 1.15 1.08 1.08 1.09 1.09 1.06 1.02 1.02 1.02 1.01 0.98 0.96 0.98 0.97 0.92 0.97 1.01 0.96 0.95 1.06 1.15 1.14 1.10 1.10 1.21 1.25

GEFSGL_prec_meanprecacc_324.txt.gz
Total_Precipitation_Accumulation
1.82 1.92 1.97 1.94 2.02 2.11 2.16 2.07 2.18 2.30 2.46 2.43 2.43 2.44 2.32 2.25 2.33 2.47 2.32 2.52 2.52 2.55 2.52 2.55 2.57 2.75 2.86 2.77 2.82 2.89 3.17 3.47 3.38 3.10 2.79 2.60 2.54 2.51 2.37 2.31 2.23 2.12 1.93
1.75 1.78 1.92 2.00 1.96 1.91 1.87 1.91 1.97 2.02 2.10 2.12 2.10 2.11 2.15 2.31 2.44 2.36 2.32 2.34 2.38 2.34 2.41 2.56 2.44 2.61 2.74 2.65 2.76 2.78 2.94 3.31 3.46 3.54 3.43 3.10 2.84 2.69 2.63 2.42 2.00 1.84 1.91
1.84 1.85 1.97 1.91 1.82 1.84 1.98 2.05 2.02 2.02 2.06 2.03 2.03 2.03 2.06 2.28 2.44 2.37 2.38 2.44 2.43 2.29 2.39 2.43 2.30 2.45 2.50 2.54 2.59 2.64 2.82 3.04 3.33 3.28 3.29 3.21 3.04 2.78 2.89 2.58 2.26 2.20 1.80
1.84 1.94 2.07 1.98 1.96 2.04 2.16 2.24 2.19 2.09 2.10 2.19 2.21 2.15 2.17 2.10 2.12 2.27 2.42 2.41 2.38 2.27 2.27 2.19 2.07 2.09 2.18 2.37 2.37 2.49 2.71 2.90 3.09 3.03 3.08 3.18 3.25 3.26 3.28 3.02 2.82 2.58 2.19
1.84 1.97 2.07 2.13 2.13 2.16 2.18 2.26 2.25 2.14 2.12 2.35 2.36 2.32 2.28 2.12 1.98 2.11 2.22 2.14 2.17 2.13 2.08 1.92 1.73 1.80 1.91 1.98 1.89 2.25 2.57 2.68 2.76 2.84 2.92 3.11 3.26 3.50 3.30 3.15 3.04 2.98 2.67
1.68 1.85 1.92 2.05 2.18 2.18 2.15 2.20 2.21 2.25 2.29 2.33 2.27 2.26 2.15 1.82 1.89 1.85 1.80 1.84 1.90 1.91 1.94 1.92 1.78 1.69 1.65 1.68 1.63 1.80 2.12 2.27 2.46 2.75 2.87 3.07 3.16 3.18 3.35 3.33 3.27 3.13 2.84
1.55 1.72 1.85 1.98 2.07 2.11 2.07 2.17 2.29 2.27 2.20 2.09 2.03 2.03 1.97 1.89 1.74 1.51 1.46 1.58 1.76 1.83 1.87 1.90 1.66 1.53 1.61 1.49 1.57 1.63 1.66 1.76 1.93 2.31 2.57 2.66 2.72 2.78 3.08 3.18 3.18 3.05 2.95
1.63 1.76 1.85 1.99 2.04 2.07 2.06 2.03 2.05 2.05 2.03 2.03 1.91 1.91 1.98 1.87 1.77 1.51 1.41 1.37 1.57 1.61 1.60 1.64 1.68 1.64 1.56 1.62 1.60 1.56 1.47 1.51 1.62 1.65 1.81 2.04 2.32 2.57 2.77 2.97 3.24 3.19 3.11
1.66 1.81 1.93 2.03 2.05 2.04 2.06 2.01 2.04 2.03 1.97 1.97 1.95 1.97 1.96 1.89 1.83 1.61 1.53 1.48 1.60 1.60 1.62 1.63 1.71 1.75 1.78 1.66 1.60 1.60 1.59 1.60 1.57 1.57 1.51 1.61 1.80 1.94 2.13 2.40 2.77 3.11 3.29
1.72 1.82 1.93 2.02 2.14 2.09 2.18 2.23 2.19 2.10 2.01 1.99 2.02 1.98 1.87 1.83 1.73 1.55 1.53 1.51 1.70 1.82 1.91 1.89 1.79 1.67 1.69 1.59 1.55 1.62 1.58 1.59 1.51 1.46 1.40 1.38 1.39 1.54 1.74 1.96 2.28 2.66 2.94
1.79 1.91 2.00 2.08 2.15 2.13 2.19 2.23 2.23 2.16 2.13 2.00 1.89 1.89 1.88 1.78 1.60 1.34 1.30 1.32 1.57 1.81 1.86 1.80 1.69 1.55 1.42 1.37 1.33 1.42 1.52 1.47 1.46 1.49 1.52 1.51 1.53 1.57 1.64 1.75 2.07 2.34 2.49
1.90 1.90 1.98 2.12 1.96 1.95 2.18 2.25 2.27 2.29 2.25 2.12 1.99 1.91 1.92 1.84 1.56 1.38 1.33 1.33 1.48 1.72 1.92 1.88 1.73 1.56 1.38 1.29 1.13 1.19 1.26 1.20 1.26 1.44 1.51 1.53 1.55 1.57 1.66 1.78 1.98 2.20 2.39
1.91 1.95 1.97 2.02 2.12 2.19 2.24 2.31 2.29 2.24 2.21 2.17 2.11 2.00 1.97 1.99 1.92 1.65 1.51 1.47 1.54 1.60 1.76 1.94 1.81 1.52 1.29 1.19 1.14 1.07 0.97 0.96 1.12 1.25 1.32 1.42 1.48 1.56 1.69 1.87 2.09 2.27 2.34
2.03 2.13 2.11 2.08 2.12 2.29 2.45 2.45 2.37 2.22 2.25 2.28 2.18 2.15 2.15 2.17 2.06 1.84 1.68 1.57 1.59 1.58 1.59 1.61 1.57 1.43 1.24 1.23 1.24 1.11 1.00 1.07 1.14 1.16 1.24 1.35 1.43 1.51 1.66 1.77 1.97 2.19 2.33
2.24 2.23 2.25 2.27 2.31 2.39 2.39 2.38 2.37 2.32 2.27 2.30 2.26 2.23 2.20 2.13 2.01 1.89 1.76 1.70 1.69 1.63 1.54 1.55 1.50 1.50 1.36 1.30 1.36 1.36 1.33 1.37 1.33 1.26 1.29 1.32 1.38 1.44 1.51 1.64 1.81 1.93 2.05
2.53 2.42 2.42 2.42 2.44 2.42 2.45 2.30 2.17 2.09 2.04 1.94 1.96 1.95 1.85 1.81 1.75 1.65 1.63 1.62 1.59 1.59 1.47 1.55 1.65 1.63 1.57 1.55 1.56 1.54 1.53 1.49 1.47 1.50 1.48 1.43 1.43 1.46 1.44 1.50 1.64 1.73 1.77
2.69 2.64 2.53 2.45 2.40 2.39 2.47 2.48 2.40 2.25 2.18 2.02 1.87 1.78 1.73 1.68 1.58 1.50 1.51 1.57 1.59 1.58 1.50 1.61 1.76 1.77 1.75 1.74 1.66 1.61 1.65 1.60 1.59 1.61 1.59 1.58 1.60 1.60 1.57 1.58 1.67 1.78 1.78
2.59 2.58 2.52 2.48 2.39 2.37 2.46 2.53 2.47 2.42 2.38 2.22 2.01 1.89 1.70 1.53 1.42 1.41 1.49 1.50 1.47 1.45 1.51 1.71 1.89 1.89 1.88 1.86 1.77 1.69 1.70 1.68 1.65 1.63 1.63 1.60 1.62 1.68 1.70 1.67 1.68 1.75 1.76
2.54 2.47 2.44 2.41 2.45 2.52 2.56 2.61 2.57 2.53 2.49 2.38 2.13 1.96 1.83 1.58 1.45 1.43 1.44 1.39 1.49 1.60 1.67 1.78 1.83 1.85 1.85 1.78 1.69 1.65 1.68 1.65 1.61 1.64 1.64 1.63 1.64 1.72 1.72 1.69 1.67 1.75 1.68
2.60 2.59 2.48 2.34 2.32 2.44 2.55 2.53 2.53 2.53 2.45 2.36 2.25 2.04 1.82 1.65 1.55 1.54 1.46 1.47 1.56 1.62 1.63 1.64 1.64 1.63 1.65 1.67 1.68 1.70 1.75 1.71 1.69 1.67 1.61 1.60 1.61 1.65 1.68 1.69 1.67 1.66 1.61
2.32 2.27 2.23 2.06 2.02 2.07 2.26 2.36 2.41 2.48 2.36 2.22 2.13 2.07 1.85 1.57 1.57 1.57 1.55 1.52 1.54 1.57 1.57 1.57 1.57 1.54 1.52 1.59 1.65 1.66 1.69 1.71 1.66 1.61 1.61 1.62 1.59 1.63 1.62 1.60 1.57 1.51 1.50
2.15 2.11 1.99 1.90 1.92 2.00 2.09 2.16 2.27 2.36 2.32 2.24 2.11 2.02 1.92 1.64 1.57 1.54 1.48 1.45 1.43 1.44 1.45 1.54 1.55 1.52 1.50 1.57 1.62 1.63 1.62 1.59 1.55 1.53 1.51 1.49 1.51 1.54 1.54 1.54 1.55 1.53 1.52
2.29 2.20 2.16 2.11 2.02 2.08 2.06 2.10 2.21 2.19 2.11 2.09 2.01 1.90 1.82 1.79 1.70 1.60 1.50 1.43 1.39 1.38 1.37 1.41 1.44 1.43 1.41 1.42 1.46 1.46 1.41 1.38 1.36 1.33 1.38 1.41 1.44 1.49 1.51 1.53 1.58 1.64 1.62
2.29 2.30 2.20 2.07 1.99 1.94 1.95 2.05 2.08 1.98 1.85 1.83 1.79 1.69 1.68 1.71 1.67 1.59 1.46 1.40 1.39 1.35 1.30 1.25 1.20 1.17 1.17 1.19 1.23 1.24 1.20 1.19 1.19 1.24 1.28 1.35 1.37 1.39 1.42 1.49 1.58 1.64 1.63
2.09 2.18 2.20 2.10 1.94 1.81 1.75 1.78 1.76 1.71 1.65 1.61 1.60 1.59 1.58 1.54 1.48 1.40 1.34 1.31 1.28 1.22 1.13 1.08 1.06 1.05 1.03 1.02 1.02 1.05 1.13 1.17 1.17 1.16 1.17 1.24 1.28 1.33 1.33 1.38 1.46 1.52 1.51
1.93 1.96 1.92 1.82 1.69 1.57 1.54 1.56 1.54 1.47 1.43 1.38 1.35 1.33 1.28 1.25 1.22 1.16 1.10 1.09 1.11 1.11 1.08 1.04 1.04 1.04 1.03 1.00 0.98 1.01 1.01 0.96 1.01 1.05 0.98 0.97 1.08 1.17 1.16 1.12 1.12 1.23 1.28

GEFSGL_prec_meanprecacc_330.txt.gz
Total_Precipitation_Accumulation
1.84 1.93 1.98 1.97 2.10 2.16 2.17 2.08 2.19 2.32 2.49 2.46 2.45 2.46 2.34 2.27 2.36 2.50 2.35 2.55 2.58 2.63 2.60 2.65 2.71 2.94 3.04 2.94 2.98 3.02 3.28 3.58 3.48 3.18 2.85 2.65 2.59 2.56 2.42 2.35 2.25 2.14 1.95
1.75 1.78 1.93 2.01 1.99 1.94 1.89 1.93 1.99 2.03 2.13 2.15 2.12 2.13 2.17 2.34 2.46 2.38 2.34 2.38 2.45 2.40 2.47 2.62 2.50 2.70 2.86 2.79 2.90 2.92 3.09 3.44 3.57 3.64 3.52 3.19 2.92 2.75 2.68 2.46 2.04 1.87 1.94
1.85 1.85 1.98 1.92 1.83 1.85 1.99 2.07 2.03 2.03 2.08 2.05 2.04 2.04 2.08 2.30 2.46 2.39 2.39 2.46 2.47 2.32 2.41 2.45 2.32 2.49 2.56 2.64 2.70 2.76 2.96 3.19 3.48 3.41 3.40 3.31 3.14 2.87 2.95 2.63 2.30 2.24 1.84
1.85 1.95 2.07 1.98 1.97 2.05 2.17 2.25 2.21 2.12 2.13 2.21 2.22 2.17 2.20 2.12 2.15 2.30 2.43 2.43 2.40 2.28 2.29 2.21 2.08 2.11 2.21 2.42 2.44 2.58 2.80 3.01 3.21 3.16 3.19 3.28 3.35 3.34 3.35 3.07 2.87 2.63 2.23
1.85 1.98 2.08 2.14 2.15 2.19 2.20 2.27 2.26 2.16 2.14 2.37 2.39 2.34 2.30 2.13 1.99 2.12 2.23 2.15 2.19 2.14 2.10 1.94 1.75 1.81 1.93 2.01 1.92 2.29 2.63 2.75 2.84 2.92 3.01 3.19 3.34 3.58 3.36 3.20 3.08 3.02 2.71
1.69 1.87 1.94 2.07 2.21 2.21 2.17 2.23 2.24 2.27 2.31 2.35 2.29 2.27 2.16 1.82 1.89 1.85 1.81 1.86 1.92 1.93 1.95 1.94 1.80 1.71 1.67 1.70 1.66 1.83 2.15 2.31 2.51 2.81 2.94 3.13 3.23 3.25 3.41 3.38 3.32 3.17 2.88
1.57 1.73 1.87 1.99 2.10 2.14 2.09 2.19 2.32 2.31 2.23 2.12 2.05 2.05 1.98 1.90 1.76 1.53 1.47 1.60 1.78 1.86 1.89 1.93 1.68 1.55 1.63 1.51 1.59 1.64 1.68 1.78 1.96 2.35 2.62 2.71 2.78 2.84 3.13 3.22 3.21 3.09 2.99
1.65 1.78 1.86 2.01 2.06 2.09 2.08 2.05 2.09 2.10 2.08 2.08 1.96 1.94 2.01 1.90 1.80 1.53 1.44 1.41 1.59 1.63 1.62 1.66 1.71 1.67 1.59 1.65 1.63 1.60 1.51 1.55 1.66 1.68 1.84 2.07 2.36 2.62 2.81 3.00 3.28 3.22 3.14
1.67 1.82 1.94 2.04 2.07 2.06 2.07 2.03 2.06 2.06 2.01 2.01 1.99 2.00 1.99 1.93 1.87 1.65 1.58 1.54 1.65 1.64 1.65 1.67 1.75 1.79 1.83 1.72 1.66 1.67 1.65 1.64 1.60 1.60 1.53 1.65 1.83 1.98 2.15 2.43 2.80 3.13 3.32
1.74 1.84 1.95 2.04 2.15 2.11 2.20 2.26 2.23 2.13 2.05 2.03 2.06 2.03 1.93 1.88 1.78 1.59 1.58 1.56 1.74 1.85 1.95 1.93 1.83 1.71 1.73 1.63 1.59 1.65 1.62 1.62 1.54 1.50 1.44 1.41 1.42 1.57 1.77 1.98 2.30 2.68 2.96
1.82 1.93 2.03 2.11 2.18 2.17 2.23 2.28 2.28 2.21 2.17 2.05 1.93 1.94 1.94 1.82 1.63 1.37 1.33 1.34 1.59 1.83 1.88 1.82 1.72 1.57 1.44 1.40 1.36 1.45 1.54 1.51 1.50 1.53 1.55 1.54 1.56 1.60 1.67 1.78 2.10 2.38 2.52
1.91 1.92 2.03 2.17 2.01 2.00 2.22 2.29 2.32 2.33 2.29 2.15 2.02 1.94 1.95 1.86 1.58 1.40 1.35 1.34 1.50 1.75 1.95 1.91 1.76 1.59 1.40 1.31 1.16 1.22 1.30 1.24 1.30 1.48 1.54 1.55 1.58 1.61 1.69 1.81 2.03 2.24 2.42
1.93 1.97 1.99 2.04 2.15 2.21 2.27 2.34 2.31 2.26 2.23 2.18 2.13 2.02 1.99 2.02 1.94 1.67 1.52 1.49 1.56 1.62 1.77 1.95 1.82 1.53 1.30 1.20 1.16 1.10 1.00 1.00 1.16 1.29 1.36 1.46 1.52 1.60 1.73 1.91 2.14 2.30 2.36
2.06 2.15 2.13 2.09 2.14 2.30 2.46 2.46 2.37 2.23 2.26 2.29 2.19 2.16 2.17 2.19 2.08 1.86 1.69 1.58 1.61 1.59 1.60 1.62 1.58 1.44 1.25 1.24 1.26 1.13 1.02 1.09 1.17 1.19 1.28 1.40 1.47 1.55 1.70 1.80 2.00 2.22 2.35
2.27 2.26 2.27 2.29 2.33 2.41 2.41 2.39 2.39 2.34 2.28 2.31 2.27 2.24 2.22 2.15 2.03 1.91 1.77 1.71 1.70 1.64 1.56 1.56 1.52 1.51 1.37 1.32 1.38 1.38 1.35 1.39 1.36 1.30 1.33 1.36 1.41 1.46 1.53 1.66 1.83 1.95 2.07
2.57 2.45 2.45 2.44 2.46 2.44 2.47 2.32 2.20 2.11 2.06 1.95 1.98 1.96 1.86 1.83 1.77 1.67 1.65 1.64 1.62 1.63 1.52 1.58 1.69 1.67 1.62 1.60 1.60 1.58 1.55 1.51 1.50 1.53 1.51 1.46 1.47 1.48 1.47 1.53 1.66 1.75 1.79
2.72 2.68 2.57 2.48 2.43 2.41 2.49 2.51 2.42 2.27 2.20 2.04 1.90 1.80 1.75 1.71 1.61 1.53 1.53 1.60 1.63 1.63 1.56 1.66 1.81 1.83 1.79 1.77 1.68 1.62 1.66 1.61 1.61 1.63 1.61 1.60 1.63 1.63 1.60 1.61 1.71 1.82 1.82
2.63 2.62 2.55 2.51 2.42 2.40 2.49 2.56 2.49 2.44 2.40 2.24 2.03 1.91 1.72 1.54 1.44 1.43 1.51 1.52 1.49 1.48 1.54 1.75 1.93 1.93 1.92 1.88 1.80 1.71 1.72 1.70 1.67 1.65 1.65 1.62 1.65 1.71 1.73 1.71 1.72 1.79 1.80
2.57 2.50 2.46 2.43 2.49 2.56 2.59 2.64 2.60 2.57 2.52 2.41 2.16 1.98 1.86 1.60 1.46 1.44 1.46 1.40 1.51 1.62 1.70 1.81 1.87 1.89 1.89 1.83 1.74 1.70 1.72 1.69 1.65 1.68 1.68 1.67 1.67 1.76 1.76 1.73 1.71 1.79 1.72
2.62 2.61 2.50 2.38 2.36 2.48 2.60 2.57 2.56 2.56 2.48 2.40 2.29 2.07 1.85 1.67 1.56 1.55 1.47 1.49 1.59 1.65 1.67 1.68 1.67 1.67 1.70 1.73 1.74 1.76 1.82 1.78 1.75 1.73 1.66 1.65 1.66 1.70 1.72 1.72 1.71 1.70 1.65
2.33 2.29 2.25 2.09 2.06 2.13 2.32 2.40 2.44 2.50 2.39 2.26 2.18 2.10 1.87 1.59 1.59 1.58 1.56 1.54 1.56 1.59 1.60 1.61 1.60 1.57 1.54 1.62 1.69 1.71 1.75 1.77 1.73 1.69 1.69 1.71 1.68 1.70 1.69 1.66 1.62 1.56 1.54
2.17 2.13 2.03 1.93 1.95 2.03 2.14 2.22 2.32 2.39 2.34 2.26 2.13 2.04 1.95 1.66 1.59 1.55 1.50 1.47 1.46 1.47 1.47 1.56 1.58 1.54 1.52 1.59 1.64 1.65 1.65 1.62 1.59 1.58 1.58 1.57 1.59 1.63 1.62 1.63 1.64 1.62 1.61
2.32 2.23 2.18 2.13 2.05 2.11 2.09 2.14 2.27 2.25 2.16 2.13 2.05 1.93 1.85 1.82 1.72 1.62 1.52 1.45 1.41 1.40 1.39 1.43 1.47 1.46 1.44 1.45 1.49 1.49 1.44 1.42 1.39 1.37 1.43 1.47 1.50 1.55 1.57 1.60 1.65 1.71 1.69
2.33 2.33 2.22 2.09 2.01 1.96 1.97 2.08 2.12 2.03 1.91 1.88 1.83 1.72 1.72 1.76 1.71 1.62 1.49 1.42 1.42 1.39 1.34 1.29 1.24 1.20 1.20 1.23 1.27 1.28 1.24 1.23 1.23 1.28 1.32 1.39 1.41 1.44 1.48 1.55 1.64 1.69 1.68
2.13 2.21 2.23 2.12 1.97 1.84 1.78 1.80 1.78 1.73 1.67 1.63 1.63 1.61 1.62 1.58 1.53 1.45 1.38 1.37 1.34 1.29 1.20 1.15 1.12 1.10 1.07 1.05 1.06 1.08 1.17 1.20 1.21 1.20 1.21 1.28 1.32 1.37 1.38 1.43 1.51 1.57 1.56
1.96 2.00 1.96 1.87 1.73 1.60 1.57 1.58 1.56 1.49 1.45 1.40 1.37 1.35 1.31 1.30 1.28 1.21 1.15 1.15 1.16 1.16 1.12 1.09 1.09 1.08 1.06 1.02 1.01 1.04 1.04 0.99 1.04 1.08 1.02 1.01 1.12 1.20 1.20 1.16 1.16 1.28 1.32